Location: Newark
(34.3481°N, 134.0494°E)
Time: 03:29:23
(UTC+00:00)

Transit 2A Rocket - All Passes

Search period start: 20 January 2020 00:00
Search period end: 30 January 2020 00:00
Orbit: 593 x 910 km, 66.7° (Epoch: 19 January)

Date Brightness Start Highest point End Pass type
(mag) Time Alt. Az. Time Alt. Az. Time Alt. Az.
20 Jan - 06:22:52 10° NNW 06:27:41 50° ENE 06:32:54 10° SE daylight
20 Jan - 08:06:40 10° WNW 08:09:55 17° WSW 08:13:19 10° SSW daylight
20 Jan - 20:54:39 10° SSW 20:59:03 83° ESE 21:03:21 10° NNE visible
21 Jan - 05:40:48 10° N 05:45:03 28° ENE 05:49:36 10° ESE daylight
21 Jan - 07:23:06 10° NW 07:27:32 31° WSW 07:32:19 10° S daylight
21 Jan - 20:12:32 10° S 20:16:36 39° ESE 20:20:36 10° NE visible
21 Jan - 21:56:30 10° W 21:59:15 16° NW 22:02:00 10° NNW daylight
22 Jan - 04:59:11 10° NNE 05:02:18 16° NE 05:05:34 10° E daylight
22 Jan - 06:40:11 10° NW 06:45:06 59° WSW 06:50:29 10° SSE daylight
22 Jan - 19:31:09 10° SSE 19:34:15 19° ESE 19:37:18 10° ENE visible
22 Jan - 21:12:41 10° WSW 21:16:31 30° WNW 21:20:20 10° N visible
23 Jan - 05:57:36 10° NNW 06:02:36 76° ENE 06:08:03 10° SSE daylight
23 Jan - 07:43:20 10° W 07:44:41 11° WSW 07:46:03 10° WSW daylight
23 Jan - 20:29:36 10° SW 20:33:54 61° WNW 20:38:10 10° NNE visible
24 Jan - 05:15:19 10° N 05:20:01 41° ENE 05:25:07 10° SE daylight
24 Jan - 06:58:32 10° WNW 07:02:21 21° WSW 07:06:25 10° SSW daylight
24 Jan - 19:47:06 10° SSW 19:51:24 64° ESE 19:55:40 10° NNE visible
24 Jan - 21:33:11 10° WNW 21:34:20 11° NW 21:35:30 10° NNW visible
25 Jan - 04:33:22 10° N 04:37:21 24° NE 04:41:36 10° ESE daylight
25 Jan - 06:15:15 10° NW 06:19:57 39° WSW 06:25:03 10° S daylight
25 Jan - 19:05:11 10° S 19:08:59 30° ESE 19:12:46 10° NE visible
25 Jan - 20:48:18 10° WSW 20:51:30 20° NW 20:54:44 10° N visible
26 Jan - 03:52:02 10° NNE 03:54:33 14° NE 03:57:11 10° E daylight
26 Jan - 05:32:28 10° NNW 05:37:29 73° WSW 05:42:59 10° SSE daylight
26 Jan - 18:24:13 10° SE 18:26:41 15° ESE 18:29:06 10° ENE visible
26 Jan - 20:04:47 10° SW 20:08:49 38° WNW 20:12:51 10° N visible
27 Jan - 04:50:00 10° NNW 04:54:58 61° ENE 05:00:24 10° SE daylight
27 Jan - 06:34:26 10° WNW 06:37:08 14° WSW 06:39:57 10° SW daylight
27 Jan - 19:21:54 10° SSW 19:26:15 79° WNW 19:30:33 10° NNE visible
28 Jan - 04:07:48 10° N 04:12:22 34° ENE 04:17:16 10° ESE daylight
28 Jan - 05:50:32 10° NW 05:54:47 27° WSW 05:59:21 10° SSW daylight
28 Jan - 18:39:35 10° S 18:43:47 49° ESE 18:47:56 10° NE visible
28 Jan - 20:24:23 10° W 20:26:34 14° NW 20:28:46 10° NNW visible
29 Jan - 03:26:00 10° N 03:29:39 20° NE 03:33:31 10° E daylight
29 Jan - 05:07:28 10° NW 05:12:22 49° WSW 05:17:42 10° S daylight
29 Jan - 17:57:57 10° SSE 18:01:24 23° ESE 18:04:51 10° NE night (unlit)
29 Jan - 19:40:13 10° WSW 19:43:47 25° NW 19:47:22 10° N visible
